TIME,DELAY(SENSOR),PRES,T(CTD),SAL,OXYGEN,RAWTEMP,T(OPTODE),TCPHASE,FLUOR,BETA(BETA700),BETA(BETA412),BETA(BETA440),CDOM,C(CSC),ED(ED412.40),ED(ED444.00),ED(ED489.70),ED(ED554.30),LU(LU411.80),LU(LU443.40),LU(LU489.60),LU(LU554.10),COMP,TILTX,TILTX(TILTY),CHECK
1375734936,5809,497.0199890136719000,6.7112002372741700,34.1161003112793000,84.0397567749023400,596.5925292968750000,6.6942877769470215,48.3892707824707000,52,104,85,79,78,15303,2147746514,2147425700,2148010349,2147873673,2147627181,2147072722,2148245696,2147200493,2911,4,13,45191
1375735063,5806,486.2300109863281000,6.9039998054504395,34.1097984313964840,88.8071289062500000,590.0748291015625000,6.9044208526611330,47.7519493103027340,52,102,88,80,76,15301,2147746002,2147427300,2148009984,2147869760,2147626605,2147075702,2148239104,2147198034,2290,4,13,2675
1375735190,5810,474.9100036621094000,7.1803998947143555,34.1036987304687500,97.9462203979492200,582.3355102539062000,7.1534290313720700,46.6361999511718750,50,103,85,78,76,15299,2147744018,2147424868,2148007670,2147873526,2147626395,2147075693,2148243163,2147197805,1977,4,13,20109
1375735307,5809,464.5700073242187500,7.3603000640869140,34.0983009338378900,105.9654006958007800,576.5692749023438000,7.3385977745056150,45.7064399719238300,51,105,89,79,75,15305,2147745033,2147424109,2148009234,2147875154,2147626806,2147078820,2148239680,2147200822,1760,4,13,31644
1375735434,5808,453.9200134277344000,7.5018000602722170,34.0956993103027340,113.0539016723632800,572.1973266601562000,7.4787998199462890,44.9251708984375000,51,103,85,80,76,15301,2147744466,2147425435,2148007972,2147874139,2147623131,2147076288,2148240246,2147199561,1152,4,13,2812
1375735575,5810,442.9800109863281000,7.6666998863220215,34.0923995971679700,118.5591964721679700,566.9605102539062000,7.6465129852294920,44.3038101196289060,51,105,84,80,75,15299,2147745682,2147423789,2148009865,2147871442,2147624347,2147082075,2148239104,2147203181,3475,3,13,420
1375735738,5806,431.8800048828125000,7.8263001441955570,34.0909996032714840,124.2583999633789000,561.8994140625000000,7.8083710670471190,43.6809997558593750,50,106,85,80,75,15302,2147743734,2147426304,2148005403,2147873097,2147623579,2147080201,2148238144,2147197659,2723,4,13,58190
1375735927,5808,418.5700073242187500,8.2850999832153320,34.0909996032714840,136.1582031250000000,547.7250976562500000,8.2605209350585940,42.3665199279785160,50,106,84,79,74,15299,2147743963,2147425417,2148004544,2147871561,2147620214,2147082907,2148236461,2147201005,66,4,12,58287
1375736053,5807,407.4500122070312500,8.6816997528076170,34.0914993286132800,148.7498931884765600,534.9348754882812000,8.6671047210693360,41.0808906555175800,50,105,89,80,72,15299,2147740324,2147425490,2148008091,2147869001,2147619337,2147083574,2148235977,2147200749,3029,3,13,52926
1375736182,5808,396.0100097656250000,8.9135999679565430,34.0951004028320300,158.5113067626953000,527.7481079101562000,8.8949985504150390,40.1789512634277340,50,105,88,81,73,15298,2147740571,2147423652,2148007158,2147874166,2147614729,2147088667,2148230573,2147199552,1096,4,13,48237
1375736309,5809,385.1099853515625000,9.1955995559692380,34.0965003967285160,166.0670013427734400,518.7833251953125000,9.1787157058715820,39.4499282836914060,50,102,87,79,71,15298,2147737773,2147426176,2148005101,2147869824,2147614390,2147092059,2148226852,2147201974,2958,3,13,5678
1375736436,5807,374.8900146484375000,9.4200000762939450,34.1016998291015600,177.1367034912109400,511.3541870117187500,9.4133777618408200,38.5226402282714840,50,107,86,78,71,15298,2147737545,2147425243,2148005220,2147871698,2147616832,2147089371,2148229147,2147201499,2792,3,13,40805
1375736589,5809,363.4200134277344000,9.8105001449584960,34.1139984130859400,186.9438934326172000,498.8276977539062500,9.8081521987915040,37.6400985717773440,49,105,86,79,71,15298,2147739638,2147425005,2148007341,2147872411,2147615058,2147100754,2148229970,2147201956,913,3,13,22296
1375736740,5809,352.5100097656250000,10.1147003173828120,34.1301002502441400,199.4533996582031200,489.5661010742187500,10.0993299484252930,36.6818199157714840,49,104,84,79,70,15302,2147735881,2147424054,2148007625,2147870180,2147612772,2147098962,2148226678,2147198546,2755,3,14,52244
1375736891,5806,339.2900085449219000,10.4365997314453120,34.1435012817382800,203.5635986328125000,478.6597900390625000,10.4414796829223630,36.2476997375488300,50,105,87,80,69,15299,2147733723,2147425316,2148009728,2147872886,2147610203,2147095972,2148226276,2147199515,2084,3,13,41677
1375737006,5805,327.6799926757812500,10.7082004547119140,34.1551017761230500,203.4019927978515600,469.8221130371094000,10.7181701660156250,36.1103096008300800,49,103,88,79,69,15299,2147731712,2147432621,2148012717,2147871954,2147607149,2147103113,2148226112,2147203885,1685,4,13,62035
1375737111,5809,317.5700073242187500,11.0570001602172850,34.1670989990234400,206.6954956054687500,458.8992919921875000,11.0594902038574220,35.7337608337402340,49,106,84,80,69,15296,2147731739,2147428544,2148014354,2147873627,2147606848,2147103926,2148223716,2147202011,1048,3,13,64141
1375737238,5809,306.1700134277344000,11.3743000030517580,34.1808013916015600,210.2362976074218800,449.3680114746094000,11.3567399978637700,35.3710403442382800,48,106,86,79,70,15296,2147727835,2147428187,2148019172,2147871067,2147602541,2147106276,2148223707,2147203364,3262,4,14,50364
1375737365,5809,295.5499877929687500,11.6954002380371100,34.2002983093261700,210.4759979248047000,438.5914916992187500,11.6922101974487300,35.1831092834472660,48,104,90,80,69,15297,2147733394,2147434834,2148025755,2147872256,2147600594,2147111012,2148229769,2147206354,2507,3,14,14458
1375737494,5809,284.8900146484375000,12.0780000686645500,34.2127990722656250,211.9147949218750000,425.9061889648437500,12.0862998962402340,34.8982200622558600,49,105,87,79,68,15296,2147730121,2147438006,2148039661,2147871817,2147604187,2147112868,2148228132,2147205458,1849,3,13,19398
1375737633,5809,272.7500000000000000,12.7839002609252930,34.2545013427734400,213.8506011962890600,403.6818847656250000,12.7748098373413090,34.4384689331054700,49,105,85,79,68,15295,2147726848,2147441828,2148056448,2147868937,2147598848,2147122093,2148232192,2147205403,883,3,13,62695
1375737762,5810,261.2200012207031000,13.0934000015258790,34.2767982482910160,215.3363037109375000,393.2629089355469000,13.0968103408813480,34.1935081481933600,48,105,86,80,67,15293,2147726784,2147451328,2148081307,2147870665,2147597120,2147127661,2148243721,2147209042,48,4,13,60586
1375737889,5809,251.2899932861328000,13.5212001800537110,34.3119010925293000,215.7913970947265600,379.4108886718750000,13.5242099761962890,33.9553184509277340,48,105,88,80,68,15289,2147729088,2147463314,2148111625,2147872502,2147592566,2147141952,2148254226,2147209197,83,4,13,22713
1375738102,5809,239.4499969482422000,14.2857999801635740,34.3759994506835940,217.2429962158203000,353.7947082519531000,14.3126802444458000,33.4884300231933600,48,108,86,80,67,15292,2147725174,2147482368,2148162304,2147869348,2147592850,2147160749,2148279469,2147212187,3091,3,14,22914
1375738286,5809,227.6300048828125000,15.8894996643066400,34.5046005249023440,209.6567993164062500,302.6834106445312500,15.8800601959228520,33.1569213867187500,49,105,90,81,66,15285,2147729115,2147513216,2148219072,2147872118,2147588891,2147186752,2148296868,2147217380,1581,3,13,42079
1375738415,5808,215.3099975585937500,17.0984001159667970,34.6623001098632800,210.8735961914062500,262.1462097167969000,17.1195106506347660,32.5067405700683600,50,104,87,79,64,15282,2147736713,2147576877,2148361846,2147873060,2147588754,2147235044,2148361654,2147220370,200,3,14,19532
1375738503,5803,204.7500000000000000,17.8525009155273440,34.7683982849121100,213.4174957275390600,237.6634063720703000,17.8673095703125000,32.0225486755371100,51,106,85,80,65,15284,2147755053,2147656411,2148509549,2147873910,2147589613,2147272557,2148426340,2147226185,2690,2,14,19023
1375738570,5806,196.8200073242187500,18.2945995330810550,34.8319015502929700,215.1175994873047000,222.7552032470703000,18.3225803375244140,31.7239494323730470,53,103,86,80,64,15279,2147776777,2147736356,2148657901,2147875766,2147596260,2147332370,2148495414,2147234944,1808,2,14,12130
1375738625,5808,190.7299957275390600,18.6487007141113280,34.8726005554199200,213.5782928466797000,212.4564971923828000,18.6371002197265620,31.6648292541503900,57,107,83,80,63,15272,2147800576,2147821385,2148814546,2147875044,2147604662,2147389348,2148573659,2147240045,998,3,14,63610
1375738704,5809,183.2599945068359400,19.1618003845214840,34.9570007324218750,215.3643951416015600,195.2711029052734400,19.1620502471923830,31.3340797424316400,63,112,88,79,63,15265,2147850989,2147952704,2149048493,2147876187,2147620790,2147466084,2148679817,2147247058,3386,3,14,24093
1375738759,5806,178.9100036621093800,19.3964996337890620,35.0018997192382800,216.1157989501953000,187.2263946533203000,19.4078693389892580,31.1851997375488280,66,116,88,82,62,15254,2147885677,2148056274,2149219172,2147875776,2147637558,2147521984,2148757860,2147253860,2990,2,14,59396
1375738814,5808,175.0299987792968800,19.5716991424560550,35.0293998718261700,217.7400970458984400,181.8464965820312500,19.5722999572753900,31.0269107818603500,67,112,86,80,63,15259,2147925888,2148163885,2149393819,2147875510,2147655259,2147590528,2148841901,2147259830,2348,2,15,9898
1375738881,5810,170.8500061035156200,19.9183998107910160,35.0712013244628900,218.5756072998047000,171.4149017333984400,19.8912391662597660,30.8431091308593750,75,113,87,82,63,15252,2147991451,2148300681,2149619739,2147877028,2147677568,2147665289,2148938331,2147266176,1531,2,15,58765
1375738948,5808,167.0500030517578000,20.0694999694824220,35.0836982727050800,219.0776062011718800,165.1053009033203000,20.0842208862304700,30.7328891754150400,75,115,88,80,62,15244,2148062811,2148450194,2149855021,2147879725,2147708004,2147753033,2149045476,2147279661,1424,2,15,6762
1375739032,5807,162.6699981689453000,20.2306003570556640,35.0937004089355500,218.9333038330078000,160.3825073242187500,20.2287197113037100,30.6775398254394530,82,118,89,80,63,15233,2148167323,2148663113,2150180790,2147880521,2147746678,2147857216,2149180525,2147284260,1829,2,15,48737
1375739123,5808,158.5899963378906200,20.5249996185302730,35.1342010498046900,219.6967010498047000,150.8625946044922000,20.5201091766357420,30.5116195678710940,93,118,87,81,62,15228,2148305581,2148929965,2150582500,2147885915,2147805293,2147990208,2149345856,2147303168,1354,2,15,32692
1375739214,5807,154.2700042724609400,20.7266998291015620,35.1656990051269500,222.0894012451172000,144.4770050048828000,20.7156505584716800,30.3051300048828120,98,123,88,82,61,15220,2148506898,2149315885,2151172763,2147891044,2147885988,2148196443,2149591488,2147321819,422,2,15,6394
1375739293,5806,150.1999969482422000,20.7425994873046880,35.1702995300293000,222.8553924560547000,143.7104034423828000,20.7391395568847660,30.2565803527832030,98,118,88,81,62,15217,2148728594,2149711305,2151747721,2147893632,2147973760,2148389869,2149831149,2147343204,3481,2,15,64674
1375739362,5808,146.5399932861328000,20.9703998565673830,35.2070007324218750,223.7366943359375000,136.7375030517578000,20.9527893066406250,30.1206092834472660,102,121,89,82,62,15214,2148949312,2150077942,2152256448,2147899867,2148067638,2148585462,2150061046,2147356141,2962,2,15,35175
1375739441,5808,142.8600006103515600,21.1725997924804700,35.2280006408691400,225.5041046142578000,129.9344940185547000,21.1613502502441400,29.9435806274414060,107,125,90,83,62,15208,2149247058,2150575387,2152965833,2147906770,2148186322,2148810450,2150333961,2147383460,2205,2,15,31258
1375739544,5808,138.8899993896484400,21.4034996032714840,35.2599983215332000,228.8148040771484400,122.5353012084961000,21.3883209228515620,29.6851692199707030,119,123,87,82,61,15192,2149686098,2151309750,2153968649,2147920054,2148367625,2149144530,2150712868,2147418148,1851,2,15,12437
1375739673,5809,135.1999969482422000,21.5454006195068360,35.2648010253906250,229.9447021484375000,118.3852996826171900,21.5156803131103500,29.5769405364990230,122,127,90,83,60,15181,2150285248,2152234989,2155138989,2147930038,2148601773,2149542710,2151151040,2147454509,909,2,15,35989
1375739824,5806,131.1199951171875000,21.8146991729736330,35.3088989257812500,234.0408020019531200,109.1669006347656200,21.7987804412841800,29.2630596160888670,129,122,90,83,60,15162,2151103323,2153443236,2156593161,2147948178,2148921344,2150043776,2151683364,2147502582,1401,1,15,21179
1375739951,5808,126.9100036621093800,21.9165000915527340,35.3163986206054700,236.8914031982422000,105.3761978149414000,21.9152698516845700,29.0811290740966800,134,122,88,83,59,15164,2152230564,2155198729,2158864027,2147980845,2149373083,2150822729,2152558043,2147578550,113,2,15,52528
1375740054,5809,121.9300003051757800,22.0377006530761720,35.3110008239746100,238.7796020507812500,101.5688018798828100,22.0323104858398440,28.9455108642578120,135,124,89,82,60,15156,2152395620,2155019090,2157994459,2147980534,2149454500,2150719954,2152252406,2147565129,3400,2,15,22086
1375740121,5808,118.0100021362304700,22.0559005737304700,35.3081016540527340,238.8889007568359400,100.8877029418945300,22.0532608032226560,28.9320106506347660,138,123,88,83,59,15152,2155961728,2160777042,2165728969,2148088795,2150840137,2153207853,2155168429,2147821824,3025,1,15,55087
1375740188,5808,114.0999984741211000,22.1972007751464840,35.3209991455078100,239.0328063964843800,96.5599975585937500,22.1863708496093750,28.8704395294189450,137,120,90,82,59,15156,2157300836,2162514130,2167493696,2148128256,2151420827,2154015469,2155974665,2147903808,2273,2,16,550
1375740255,5807,110.5599975585937500,22.2388992309570300,35.2920989990234400,240.0639038085937500,94.9646987915039000,22.2354507446289060,28.8030109405517580,134,123,87,83,60,15150,2155937526,2159968009,2163623497,2148103990,2150897188,2152840694,2154419620,2147772763,1623,2,15,48884
1375740336,5809,106.9300003051757800,22.2872009277343750,35.2753982543945300,239.9933013916015600,93.4759063720703100,22.2812690734863280,28.7875003814697270,111,118,87,82,59,15168,2161352146,2167996260,2173440667,2148290176,2153118409,2156423405,2158298816,2148137078,952,2,15,38460
1375740439,5810,103.1900024414062500,22.3202991485595700,35.2605018615722660,239.8040924072265600,92.3451080322265600,22.3160705566406250,28.7818202972412100,103,117,89,84,59,15176,2163967049,2171048027,2176444790,2148396964,2154227236,2158007158,2159781257,2148285147,3271,1,16,58209
1375740590,5809,99.3499984741211000,22.5849990844726560,35.2980003356933600,241.2223968505859400,84.1535263061523400,22.5683307647705080,28.6140594482421880,88,118,89,83,58,15179,2167570706,2175357531,2180714669,2148543789,2155916781,2160344018,2161878180,2148491940,3098,2,16,40310
1375740686,5807,97.2300033569336000,22.6401004791259770,35.2957000732421900,242.9403076171875000,81.7706680297851600,22.6417503356933600,28.5070991516113280,83,121,89,83,58,15176,2171013787,2179430674,2184719424,2148697645,2157632393,2162666852,2163906916,2148689801,3133,2,16,41472
1375740741,5810,95.4199981689453100,22.7206001281738280,35.3022003173828100,243.3784027099609400,79.0219497680664000,22.7264804840087900,28.4529209136962900,82,122,88,82,58,15168,2173803931,2182551305,2187518784,2148784320,2159092928,2164557513,2165454281,2148833636,3242,1,16,36338
1375740796,5808,93.5899963378906200,22.9221992492675780,35.3067016601562500,243.9989929199218800,74.3729629516601600,22.8698406219482420,28.3670291900634770,78,125,95,84,57,15152,2176773284,2185757430,2190306093,2148918144,2160730002,2166613238,2167087808,2148996406,3398,2,15,20995
1375740851,5805,92.0100021362304700,23.0023002624511720,35.3060989379882800,244.5446929931640600,71.6056518554687500,22.9552192687988280,28.3080806732177730,78,123,89,84,59,15159,2179682185,2188908096,2193163830,2149044598,2162278784,2168486436,2168516818,2149143085,3273,1,15,56692
1375740918,5816,90.4899978637695300,23.0904006958007800,35.3129005432128900,244.9313964843750000,67.5054397583007800,23.0817794799804700,28.2399406433105470,78,122,91,84,58,15157,2183191734,2192684717,2196590244,2149189933,2164320109,2171074020,2170669833,2149349074,2663,1,16,57466
1375741014,5808,87.7799987792968800,23.2450008392334000,35.3205986022949200,246.9467926025390600,62.4117202758789060,23.2391109466552730,28.0880203247070300,74,122,93,83,58,15161,2188805312,2198546761,2201612470,2149509805,2168141577,2175356873,2173705481,2149660781,1231,2,16,23104
1375741069,5806,85.5299987792968800,23.3036994934082030,35.3269004821777340,247.7444000244140600,60.7640113830566400,23.2900199890136720,28.0328807830810550,72,122,90,84,57,15162,2194039094,2204104082,2206726857,2149797540,2171453924,2179131785,2176441033,2149931675,1118,2,16,32623
1375741124,5807,83.0599975585937500,23.3880004882812500,35.2985000610351560,247.0108947753906200,58.0234489440918000,23.3747291564941400,28.0307197570800780,70,120,90,85,57,15162,2199802377,2209556580,2211290816,2150121673,2175137792,2183280996,2179472201,2150240576,1564,1,16,56657
1375741179,5807,80.6299972534179700,23.4698009490966800,35.2985992431640600,245.8928985595703000,55.2224082946777340,23.4613494873046880,28.0448493957519530,69,121,91,84,56,15159,2205747913,2215106816,2216141147,2150516772,2178735195,2187390738,2182510957,2150547620,2267,1,16,5789
1375741234,5803,78.1100006103515600,23.5611991882324220,35.3011016845703100,244.6497955322265600,51.9741783142089840,23.5618305206298830,28.0591297149658200,69,122,90,85,58,15157,2212888585,2222235465,2222793508,2151106404,2182955410,2192161563,2186182866,2150978166,2286,1,16,26383
1375741291,5808,75.3700027465820300,23.7724990844726560,35.3064002990722660,244.7783966064453000,45.9419288635253900,23.7485694885253900,27.9787292480468750,69,121,90,84,59,15155,2220344521,2229851154,2229679817,2151746413,2188002733,2197679716,2190258697,2151448109,1391,2,16,35302
1375741346,5807,73.0199966430664000,23.8733005523681640,35.3081016540527340,246.6119995117187500,43.6919288635253900,23.8182697296142580,27.8707408905029300,69,126,89,85,56,15144,2227790125,2237435913,2236701586,2152390454,2193238829,2203620571,2194860306,2151977691,1046,1,16,57139
1375741401,5806,71.0599975585937500,23.9141998291015620,35.3111991882324200,248.5634002685547000,41.0821800231933600,23.8991394042968750,27.7538509368896500,68,137,93,84,57,15143,2231454427,2240709613,2239572242,2152920685,2195857673,2206033993,2196350747,2152173485,1307,1,16,30522
1375741468,5808,69.3099975585937500,24.1714000701904300,35.3013000488281250,249.5552978515625000,34.4343681335449200,24.1052894592285160,27.6296291351318360,68,122,92,84,56,15129,2238246518,2247845065,2246705691,2153685193,2200272868,2210815149,2199941257,2152604790,1431,1,16,26070
1375741780,5816,67.4599990844726600,24.6431999206542970,35.3042984008789060,250.2201995849609400,20.0898704528808600,24.5508899688720700,27.4254398345947270,62,126,93,85,55,15127,2257841609,2265640749,2261144265,2154811008,2217145243,2227421037,2210492763,2153735360,3592,1,16,9508
1375741924,5810,64.5100021362304700,24.7378005981445300,35.3102989196777340,250.4353027343750000,14.1571502685546880,24.7355003356933600,27.3439502716064450,60,124,92,84,55,15122,2268239936,2274839981,2268898898,2156340681,2228103277,2237391990,2216708662,2154552411,1066,1,16,37522
1375741979,5807,62.2099990844726560,24.9554004669189450,35.3045005798339840,249.6625976562500000,8.8594522476196290,24.9005203247070300,27.3121490478515620,60,123,89,86,55,15135,2276776210,2282099858,2275030610,2157613138,2236835958,2245376731,2221756480,2155198619,1206,1,16,48280
1375742034,5811,60.2999992370605500,25.0708007812500000,35.3036003112793000,249.1909027099609400,3.3357560634613037,25.0727500915527340,27.2648696899414060,60,122,94,85,53,15129,2285783524,2290791012,2283041526,2158859666,2246187456,2254428352,2227652489,2155908525,1290,1,16,26380
1375742089,5809,58.9900016784668000,25.3894996643066400,35.2963981628418000,247.9400024414062500,-5.4451169967651370,25.3469009399414060,27.2111492156982420,61,126,91,84,58,15131,2291649709,2295963236,2287532937,2159627062,2253395300,2261300123,2232057792,2156446290,567,1,16,18736
1375742293,5807,57.5600013732910160,25.6686992645263670,35.2910995483398440,246.0556945800781200,-14.9322204589843750,25.6436195373535160,27.1764507293701170,59,124,92,85,52,15126,2300827008,2303136813,2293209078,2160809600,2266536786,2272503753,2238137243,2157149549,2861,1,16,18621
1375742468,5807,55.8600006103515600,25.9822006225585940,35.2927017211914060,243.3316040039062500,-25.9570007324218750,25.9891490936279300,27.1601009368896500,59,127,93,85,60,15129,2317454217,2319518601,2308435620,2163059337,2284171547,2289350299,2249081810,2158530514,3283,1,16,5714
1375742600,5806,52.8800010681152340,26.2430000305175780,35.2817993164062500,241.5959014892578000,-33.4277801513671900,26.2237491607666000,27.1449108123779300,56,130,92,85,54,15128,2330245641,2330657024,2318684827,2166414272,2303937490,2306899209,2260055424,2159965933,2572,1,16,30882
1375742655,5810,51.1199989318847660,26.4309005737304700,35.2829017639160160,240.5494995117187500,-38.0946693420410160,26.3704891204834000,27.1339797973632800,56,133,91,86,54,15122,2340890624,2341990500,2330458633,2168967990,2311901522,2313448795,2263845101,2160751222,2226,1,16,45864
1375742758,5810,49.8400001525878900,26.5506992340087900,35.2885017395019500,239.3108978271484400,-42.9854011535644500,26.5244293212890620,27.1289596557617200,55,124,93,85,56,15132,2360234587,2362683776,2351599579,2172414198,2334605257,2336585316,2280048886,2162703149,2383,1,16,50558
1375742937,5802,47.3400001525878900,26.7787990570068360,35.3002014160156250,235.9125976562500000,-50.7032394409179700,26.7676906585693360,27.1857604980468750,54,122,93,86,52,15119,2251816283,2245957659,2234703680,2158153444,2250726601,2243803986,2210113664,2154382208,3327,1,16,38500
1375743028,5810,45.0600013732910160,26.8964004516601560,35.3083992004394500,233.6858978271484400,-55.6134414672851560,26.9226799011230470,27.2261791229248050,54,126,90,82,54,15129,2390254372,2390553014,2377950976,2181911853,2391600201,2385285001,2308669156,2166814729,67,1,16,8196
1375743095,5808,43.2799987792968750,27.0379009246826170,35.3157997131347660,232.3491058349609400,-59.3191795349121100,27.0397701263427730,27.2414398193359380,54,124,92,85,52,15135,2391441974,2390684946,2377863369,2184168777,2397353042,2388384996,2309570742,2167437851,54,1,16,25085
1375743179,5810,40.6199989318847660,27.0545997619628900,35.3157005310058600,231.5532989501953000,-60.3632392883300800,27.0727806091308600,27.2647991180419920,53,121,86,86,56,15130,2415605723,2415512237,2404259977,2194731538,2429093997,2415860562,2326800128,2170709997,2594,1,17,13528
1375743234,5807,38.1199989318847660,27.1667995452880860,35.3207015991210940,230.6156005859375000,-63.7173805236816400,27.1788692474365230,27.2665996551513670,53,122,92,85,58,15127,2418459849,2418767634,2409206747,2201249298,2428141385,2411623680,2323045952,2171769472,2319,1,16,43102
1375743289,5803,35.7999992370605500,27.2122993469238280,35.3235015869140600,229.7536926269531200,-65.2630233764648400,27.2277908325195300,27.2873096466064450,52,124,91,83,59,15129,2448785014,2447989028,2437637732,2212427849,2481983323,2460557851,2354664640,2176552301,2104,1,16,28300
1375743344,5805,33.6399993896484400,27.2784004211425780,35.3233985900878900,229.1649932861328000,-67.4116210937500000,27.2958297729492200,27.2883090972900400,53,122,94,85,55,15124,2448941202,2449823442,2443221851,2219323565,2477571172,2453099401,2348291090,2177463277,2144,0,17,63312
1375743399,5805,31.8899993896484380,27.4053993225097660,35.2891998291015600,228.1748962402343800,-71.1280670166015600,27.4135799407959000,27.2884101867675780,52,120,92,83,56,15122,2436057865,2432214217,2421881261,2218703030,2499248521,2469334290,2356431963,2178202011,2016,1,17,11877